Weather in Markuchi

Russia / Amur Oblast     51°34′30″N   127°42′16″E
temp.,
°C
wind,
m/s
gust,
m/s
humid.,
%
clouds,
%
prec.,
mm/h
press.,
hPa
HPBL,
m
21 january, thu
thu2100:00−23nw359899 0.1 101895
03:00−27nw699495 0.1 1021170
06:00−30nw611938 0.0 1023199
09:00−30wnw59934 0.0 1025158
12:00−24wnw69840 0.0 1025486
15:00−22wnw47840 0.0 1025480
18:00−26wnw23910 0.0 102619
21:00−27wnw33910 0.0 102720
22 january, fri
fri2200:00−28wnw339127 0.0 102721
03:00−29wnw238813 0.0 102720
06:00−29nw228746 0.0 102619
09:00−29nw228569 0.0 102820
12:00−23nw34820 0.0 1028282
15:00−21wnw23811 0.0 1028407
18:00−26wnw22924 0.0 102919
21:00−29ne00972 0.0 103019
23 january, sat
sat2300:00−29sse22930 0.0 103019
03:00−29sse339814 0.0 102929
06:00−29se469988 0.0 1028106
09:00−28se489994 0.0 1027217
12:00−23sse5794100 0.0 1025286
15:00−21sse4693100 0.0 1023293
18:00−21se2399100 0.3 1023150
21:00−22ne1299100 0.9 102422
24 january, sun
sun2400:00−25nnw349760 0.0 102737
03:00−27nnw449545 0.0 103068
06:00−29nnw349476 0.0 103156
09:00−28nnw249281 0.0 103394
12:00−24nw3485100 0.0 1035297
15:00−22nnw3483100 0.0 1035377
18:00−23n2390100 0.0 103662
21:00−27n239281 0.0 103724
25 january, mon
mon2500:00−26n239095 0.0 103871
03:00−25n248897 0.0 103998
06:00−25nne2388100 0.0 103892
09:00−25nne2487100 0.0 1038141
12:00−23ne4680100 0.0 1036306
15:00−23ene4688100 0.0 1032321
18:00−25ene5994100 0.0 1027237
21:00−24e5894100 0.0 1023251